Regional Weather Roundup
Issued by NWS

Home | Current Version | Previous Version | Text Only | Print | Product List | Glossary Off
Versions: 1 2 3 4 5 6 7 8 9 10 11 12 13 14 15 16 17 18 19 20 21 22 23 24 25 26 27 28 29 30 31 32 33 34 35 36 37 38 39 40 41 42 43 44 45 46 47 48 49 50

000
ASUS43 KMPX 220810
RWRMN
WEATHER ROUNDUP FOR MINNESOTA
NATIONAL WEATHER SERVICE TWIN CITIES/CHANHASSEN MN
300 AM CDT SUN OCT 22 2017


NOTE: "FAIR" INDICATES FEW OR NO CLOUDS BELOW 12,000 FEET WITH NO
SIGNIFICANT WEATHER AND/OR OBSTRUCTIONS TO VISIBILITY. N/A MEANS
CURRENT SKY AND/OR WEATHER CONDITIONS ARE NOT AVAILABLE.

MNZ060>063-068>070-220900-
   Twin Cities Metro

CITY           SKY/WX    TMP DP  RH WIND       PRES   REMARKS
TWIN CITIES    PTCLDY    50  44  80 W8        29.88R
ST PAUL        PTCLDY    50  44  80 W7        29.88R
CRYSTAL        PTCLDY    49  40  71 W8        29.86R
BLAINE         CLOUDY    52  45  76 W9        29.86R
LAKEVILLE      PTCLDY    48  43  81 W8        29.90R
EDEN PRAIRIE   CLOUDY    48  43  82 W6        29.88R
SOUTH ST PAUL  PTCLDY    50  43  76 W6        29.88R
LAKE ELMO      FAIR      50  45  81 SW6       29.87R
$$
MNZ001>005-007-008-013>017-022>024-027-028-220900-
   Northwest Minnesota

CITY           SKY/WX    TMP DP  RH WIND       PRES   REMARKS
BEMIDJI        CLOUDY    47  37  68 SW16      29.73R
HALLOCK        CLOUDY    48  37  66 W17       29.64S
ROSEAU         DRIZZLE   46  43  87 SW12G21   29.63R
WARROAD        CLOUDY    48  43  81 SW14G21   29.62S
THIEF RVR FALL CLOUDY    47  36  65 W17G26    29.71R
CROOKSTON      CLOUDY    48  37  66 W14       29.73R
FOSSTON        CLOUDY    46  36  66 SW15G23   29.74R
DETROIT LAKES  CLEAR     46  37  71 W12G18    29.81R
MOORHEAD       MOCLDY    46  37  71 SW9       29.82R
PARK RAPIDS    CLOUDY    47  41  80 SW10      29.77R
MAHNOMEN       CLOUDY    46  38  76 W16       29.77R
$$
MNZ006-009>011-018-025>026-220900-
   North Central Minnesota

CITY           SKY/WX    TMP DP  RH WIND       PRES   REMARKS
BAUDETTE       CLOUDY    49  41  74 SW12G22   29.63S
FLAG ISLAND    CLOUDY    48  43  81 SW16      29.57S
INTL FALLS     CLOUDY    46  44  93 SW7       29.65F
WASKISH        CLOUDY    48  43  81 SW10      29.68R
BIG FORK       CLOUDY    45  43  93 S7        29.70S
LONGVILLE      CLOUDY    46  43  87 SW9       29.76R
GRAND RAPIDS   CLOUDY    46  43  89 SW7       29.76S
CRANE LAKE     PTCLDY    46  46 100 SW7       29.70S
ORR            PTCLDY    46  43  87 S3        29.68S
COOK           PTCLDY    46  45  93 SW7       29.71S
WALKER         CLOUDY    46  41  81 SW15      29.74R
$$
MNZ012-019>021-037-220900-
   Northeast Minnesota

CITY           SKY/WX    TMP DP  RH WIND       PRES   REMARKS
DULUTH         PTCLDY    47  46  97 W10       29.75S
ELY            CLOUDY    50  46  87 SW6       29.70S
HIBBING        CLOUDY    45  44  97 SW6       29.73S
EVELETH        CLOUDY    47  47  99 SW10      29.74R
DULUTH HARBOR  CLOUDY    52  48  87 SW14      29.77R
TWO HARBORS    MOCLDY    54  48  82 SW7       29.72R
SILVER BAY     CLOUDY    54  52  94 SW6       29.71R
GRAND MARAIS     N/A     53  53 100 W8        29.66F
G MARAIS ARPRT CLOUDY    57  54  88 S10G16    29.67F
$$
MNZ029>031-032-039>041-046>048-054>057-064-220900-
   West Central Minnesota

CITY           SKY/WX    TMP DP  RH WIND       PRES   REMARKS
FERGUS FALLS   CLEAR     43  37  81 W7        29.85R
WHEATON        CLEAR     46  36  66 W9        29.89R
MORRIS         CLOUDY    43  39  87 W7        29.87R
ALEXANDRIA     PTCLDY    47  39  74 W13       29.87R
ELBOW LAKE     FAIR      42  38  84 SW7       29.86R
WADENA         PTCLDY    46  39  76 W12G18    29.81R
GLENWOOD       PTCLDY    45  41  87 W9        29.87R
APPLETON       CLOUDY    45  37  76 SW6       29.89R
BENSON         PTCLDY    43  39  87 W7        29.90R
ORTONVILLE     CLOUDY    46  37  71 W8        29.89R
MADISON        MOCLDY    48  39  71 W6        29.90R
WILLMAR        FAIR      45  41  87 W8        29.90S
$$
MNZ033>034-036-042>043-049>051-058-059-220900-
   Central Minnesota

CITY           SKY/WX    TMP DP  RH WIND       PRES   REMARKS
ST CLOUD       PTCLDY    45  42  89 SW8       29.86R
SAUK CENTRE    FAIR      45  40  82 W12       29.86R
PAYNESVILLE    CLEAR     45  41  88 W9        29.87S
AITKIN         PTCLDY    45  41  87 SW9       29.78R
PINE RIVER     CLOUDY    45  39  81 SW8       29.81R
BRAINERD       CLOUDY   N/A N/A N/A SW12      29.81R
STAPLES        CLOUDY    45  39  81 W12       29.81R
LONG PRAIRIE   FAIR      43  37  81 S7        29.85R
LITTLE FALLS   CLEAR     43  36  75 SW3       29.84R
LITCHFIELD     PTCLDY    46  43  87 SW5       29.89R
BUFFALO        MOCLDY    46  42  83 SW5       29.88S
MAPLE LAKE     PTCLDY    47  43  87 SW6       29.88R
HUTCHINSON     CLEAR     46  42  87 SW6       29.90S
$$
MNZ037-044-045-052-053-220900-
   East Central Minnesota

CITY           SKY/WX    TMP DP  RH WIND       PRES   REMARKS
PRINCETON      PTCLDY    46  43  87 SW5       29.85R
MORA           CLOUDY    45  41  87 SW7       29.85R
CAMBRIDGE      CLOUDY    48  45  87 SW6       29.85R
RUSH CITY      PTCLDY    47  43  84 SW7       29.84R
MOOSE LAKE     CLOUDY    45  43  93 CALM      29.77R
HINCKLEY       FAIR      46  45  93 SW9       29.82R
CLOQUET        CLOUDY    46  43  87 SW7       29.76S
MCGREGOR       CLOUDY    45  43  93 SW7       29.79R
$$
MNZ071>073-080-081-089-090-097-098-220900-
   Southwest Minnesota

CITY           SKY/WX    TMP DP  RH WIND       PRES   REMARKS
MONTEVIDEO     PTCLDY    46  39  76 W5        29.91R
GRANITE FALLS  PTCLDY    44  40  88 SW8       29.92F
CANBY          CLOUDY    47  39  73 SW10      29.92R
MARSHALL       MOCLDY    46  39  76 W10       29.92S
REDWOOD FALLS  CLOUDY    47  38  71 W10       29.90F
OLIVIA         PTCLDY    41  37  87 SW7       29.89F
PIPESTONE      CLOUDY    37  36  93 CALM      29.93F
WORTHINGTON    PTCLDY    41  37  86 W5        29.94F
JACKSON        CLOUDY    43  37  81 W6        29.95S
TRACY          PTCLDY    46  40  79 W7        29.92F
SLAYTON        PTCLDY    44  37  78 W6        29.94S
$$
MNZ065>067-074>077-082>085-091>093-220900-
   South Central Minnesota

CITY           SKY/WX    TMP DP  RH WIND       PRES   REMARKS
NEW ULM          N/A     45  39  81 W7        29.92R
ST JAMES       CLOUDY    46  39  76 W9        29.93S
FAIRMONT       CLOUDY    47  41  80 W10       29.94S
GLENCOE        CLOUDY    47  43  84 SW6       29.90R
FARIBAULT      CLOUDY    50  43  76 SW6       29.91S
OWATONNA       MOCLDY    48  45  87 W6        29.92R
WASECA         CLOUDY    45  41  87 W6        29.93R
$$
MNZ078>079-086>088-094>096-220900-
   Southeast Minnesota

CITY           SKY/WX    TMP DP  RH WIND       PRES   REMARKS
ROCHESTER      CLOUDY    49  45  86 W5        29.92R
RED WING       CLOUDY    52  43  71 W8        29.88R
STANTON        CLOUDY    50  44  79 W6        29.90R
DODGE CENTER   CLOUDY    48  43  81 W6        29.91R
WINONA         CLOUDY    54  46  76 NW6       29.90R
AUSTIN         CLOUDY    48  43  81 NW5       29.92R
PRESTON        CLOUDY    49  44  81 NW7       29.92R
$$
ABBREVIATIONS USED IN REMARKS
   TC - TEMPERATURES IN CELSIUS
  WCI - WIND CHILL INDEX
   HX - HEAT INDEX
  VSB - VISIBILITY
$$



USA.gov is the U.S. government's official web portal to all federal, state and local government web resources and services.